User: anonymous   Login
Location: Newark
(31.5350°N, 35.0986°E)
Time: 03:45:32
(UTC+00:00)
Language:

SR - Orbit

View from above orbital plane
View from above orbital plane
View from above satellite
View from above satellite

Ground track
Ground track

The orbit data is extracted from the following two-line orbital elements,

1    46U 60007B   19263.94471395 -.00000051  00000-0  13200-4 0  9993
2    46  66.6903  57.4390 0213690 331.0076  27.9294 14.49244187 99905
Epoch (UTC): 20 September 2019 22:40:23
Eccentricity: 0.0213690
inclination: 66.6903°
perigee height: 576 km
apogee height: 880 km
right ascension of ascending node: 57.4390°
argument of perigee: 331.0076°
revolutions per day: 14.49244187
mean anomaly at epoch: 27.9294°
orbit number at epoch: 9990

The dashed part of the orbit path shows where the satellite is in the earth's shadow,  

DLR